Theta_e
302 302 301 301 301 301 301 300 300 299 299 300 300 301 301 300 300 299 298 297 296 296 295 295 295 295 295 295 295 294 294 294 294 294 294 294 294 294 294 294 294 294 293 293 293 293 293 293 293 293 293 293 293 293 293 293 293 293 293 293 293 293 292 292 292 292 292 292 292 292 292 292 292 292 292 292 292 291 291 291 291 290 290 290 290 290
302 301 301 301 300 300 300 299 299 299 300 300 301 301 300 299 298 298 297 296 296 295 295 295 295 295 295 295 295 294 294 294 294 294 294 294 294 294 294 294 293 293 293 293 293 292 292 292 292 292 292 293 293 293 293 293 293 293 293 293 293 292 292 292 292 292 291 291 291 292 292 292 292 291 291 291 291 291 290 290 290 290 290 290 290 290
300 300 300 300 299 299 299 300 300 300 301 301 300 300 299 298 297 297 296 296 295 295 295 295 295 295 295 295 294 294 294 294 294 294 294 294 294 294 294 293 293 293 292 292 292 292 292 292 292 292 292 292 293 293 293 293 293 293 293 293 293 293 292 292 292 292 291 292 292 292 292 291 291 291 291 290 290 290 290 290 289 289 289 290 290 290
300 299 299 299 299 299 300 300 300 301 300 300 300 299 298 298 297 296 296 295 295 295 295 295 295 295 295 295 294 294 294 294 294 294 294 294 294 293 293 293 292 292 292 292 291 291 291 291 292 292 292 292 292 293 293 293 293 293 293 293 293 292 292 292 292 292 292 292 292 292 292 291 291 290 290 290 290 290 289 289 289 289 289 289 290 290
299 299 299 299 299 299 300 300 300 300 300 299 299 298 298 297 296 296 295 295 295 295 295 295 295 295 295 294 294 294 294 294 293 293 293 293 293 293 293 292 292 291 291 291 291 291 291 291 291 291 292 292 292 292 292 292 293 293 293 292 292 292 292 291 291 292 292 292 292 291 291 291 290 290 290 290 289 289 289 289 289 289 289 289 289 290
299 299 298 298 299 300 300 300 300 299 299 299 299 298 298 297 296 295 295 295 295 295 295 295 295 294 294 294 294 294 293 293 293 293 293 293 292 292 292 292 291 291 291 291 291 291 291 291 291 291 291 291 291 291 291 292 292 292 293 293 292 292 291 291 291 291 291 291 291 291 290 290 290 290 289 289 289 289 289 289 289 289 289 289 289 289
298 299 299 299 299 299 299 299 299 299 298 298 298 298 297 297 296 295 295 294 294 294 294 294 294 294 294 294 293 293 293 293 293 293 292 292 292 292 291 291 291 291 291 291 291 291 291 290 290 290 290 290 290 290 290 291 292 292 293 293 292 291 291 290 290 291 291 291 291 290 290 290 289 289 289 289 289 289 288 288 288 288 289 289 289 289
298 298 299 298 298 299 299 299 298 298 298 297 297 297 296 296 295 295 294 294 294 294 294 294 294 294 294 293 293 293 293 293 292 292 292 291 291 291 291 291 291 291 291 291 291 291 290 290 290 290 290 290 290 290 290 291 291 292 292 291 291 290 290 290 290 290 291 290 290 290 289 289 289 289 289 289 289 289 288 288 288 288 288 288 288 289
297 298 298 298 298 298 297 298 298 298 297 297 297 296 295 295 295 294 294 294 294 294 294 294 294 294 293 293 293 293 293 292 292 291 291 291 291 291 291 291 291 291 291 291 291 290 290 289 289 289 290 290 290 290 290 291 291 291 290 290 289 289 289 289 290 290 290 290 290 289 289 289 289 289 289 289 289 289 289 288 288 288 288 288 288 288
297 297 297 297 296 296 297 297 297 297 297 297 296 295 295 294 294 294 294 294 294 294 294 294 294 294 293 293 293 292 292 291 291 291 291 291 291 291 291 291 291 291 290 290 289 289 288 288 288 288 289 290 290 289 290 290 289 289 289 289 288 289 289 290 290 290 290 290 289 289 289 289 289 289 289 289 289 289 288 288 288 288 288 288 288 288
296 296 295 296 296 296 297 297 297 297 296 296 295 294 294 294 294 294 294 294 294 294 294 294 294 293 293 292 292 291 291 290 290 290 291 292 292 291 291 290 290 289 289 289 288 288 287 287 287 288 288 288 288 288 288 288 287 287 288 288 288 289 289 290 290 290 289 289 289 289 288 288 288 288 288 289 288 288 288 288 288 288 288 287 287 287
295 295 295 296 296 297 297 297 296 296 295 295 294 294 294 294 294 294 294 294 294 294 294 293 293 292 292 292 291 290 290 290 290 291 291 292 291 291 290 289 289 288 288 288 287 287 287 287 287 287 287 288 288 287 287 287 287 287 288 288 289 289 289 289 289 289 289 289 288 288 288 288 288 288 288 288 288 288 288 288 288 287 287 287 287 287
295 295 296 296 297 297 297 297 296 295 295 294 294 294 294 294 294 294 295 294 294 294 293 293 292 292 291 291 290 290 290 290 290 291 291 291 290 289 289 288 288 287 287 287 287 287 287 287 288 288 287 287 287 287 287 287 287 287 288 288 289 289 289 289 288 288 288 288 288 288 288 288 288 288 288 288 288 288 288 287 287 287 287 287 287 287
295 295 296 297 297 297 297 296 296 295 294 294 294 294 294 294 294 295 294 294 293 293 292 292 291 291 291 290 290 289 289 290 290 290 289 289 288 287 287 287 287 287 286 286 286 286 287 288 288 288 288 288 288 287 287 287 287 287 288 288 288 288 288 288 288 288 288 288 288 288 288 288 288 288 288 288 288 287 287 287 287 287 287 287 287 287
295 296 296 297 297 297 297 296 296 295 295 294 294 294 295 294 294 294 293 293 292 292 291 291 290 290 290 290 289 289 289 289 289 288 288 287 287 287 287 287 287 287 286 286 286 286 287 287 288 288 288 287 287 287 287 287 287 287 288 288 288 288 288 288 287 287 288 288 288 288 288 288 288 288 288 287 287 287 287 287 287 287 287 287 287 287
295 296 297 297 297 297 296 296 295 295 294 294 294 294 294 294 293 293 292 292 291 291 290 290 290 289 289 289 289 289 289 288 288 288 287 287 287 286 287 287 287 287 287 286 286 286 286 286 286 286 286 286 286 286 286 286 286 287 287 287 287 287 287 287 287 287 287 287 287 287 287 287 287 287 287 287 286 286 286 286 287 287 287 287 287 287
296 297 297 297 296 296 295 295 295 294 294 294 294 294 293 293 292 292 292 291 291 290 290 290 289 289 289 289 288 288 288 288 287 287 287 286 286 286 286 287 287 287 286 286 286 286 286 286 286 285 286 286 286 286 286 286 286 286 286 287 287 287 287 287 287 287 287 287 287 287 287 287 287 286 286 286 286 286 286 286 286 286 287 287 287 287
296 296 296 295 295 295 294 294 294 294 294 293 293 293 293 292 292 291 291 291 290 290 289 289 289 289 289 288 288 287 287 287 287 286 286 286 286 286 286 286 286 286 286 286 285 285 285 285 285 285 285 285 285 285 285 285 285 286 286 286 286 286 286 286 286 286 286 286 286 286 286 286 286 286 286 286 286 286 286 286 286 286 286 287 287 287
296 295 295 295 294 294 294 294 293 293 293 292 292 292 292 292 291 291 290 290 290 289 289 288 288 288 288 288 287 287 286 286 286 286 286 286 286 286 286 286 286 285 285 285 285 285 285 285 285 285 285 285 285 285 285 285 285 285 286 286 286 286 286 286 286 286 286 286 286 286 285 285 285 285 286 286 286 286 286 286 286 286 286 286 287 287
295 294 294 294 294 294 294 293 293 293 292 292 291 291 291 291 290 290 290 289 289 288 288 287 287 287 287 287 286 286 286 286 286 285 285 285 285 285 285 285 285 285 285 285 285 285 285 285 285 285 285 284 284 284 284 284 284 284 285 285 285 285 285 285 285 285 285 285 285 285 285 285 285 285 285 286 286 286 286 286 286 286 286 287 287 287
295 294 294 294 294 294 293 292 292 291 291 291 290 290 290 290 290 289 289 288 288 287 287 287 287 287 287 286 286 286 285 285 285 285 285 285 285 285 285 285 285 285 285 285 284 284 284 284 284 284 284 284 284 283 283 283 284 284 285 285 285 285 285 285 285 285 285 285 285 285 285 285 285 285 285 285 285 286 286 286 286 286 286 286 286 286
295 294 294 294 293 293 293 292 291 291 291 290 290 289 289 289 289 288 288 287 287 287 287 287 286 286 286 286 286 285 285 285 285 285 285 285 285 285 285 285 285 285 284 284 284 284 284 284 283 283 283 283 283 283 283 283 283 284 284 284 284 284 284 284 284 284 284 284 284 284 284 285 285 285 285 285 285 285 285 285 285 286 286 286 286 286
294 294 293 293 293 293 292 292 291 290 290 289 289 289 288 288 288 287 287 287 287 287 286 286 286 286 285 285 285 285 285 285 285 285 285 285 285 285 284 284 284 284 284 283 283 283 283 283 283 283 283 283 283 282 282 283 283 283 283 283 283 283 283 283 283 284 284 284 284 284 284 284 284 285 285 285 285 285 285 285 285 285 285 286 286 286
293 293 293 292 292 291 291 291 290 289 288 288 288 288 287 287 287 287 286 286 286 286 286 286 286 285 285 285 286 286 285 285 284 284 285 285 285 284 284 284 283 283 283 283 282 282 282 282 283 282 282 282 282 282 282 282 282 282 283 283 283 283 283 283 283 283 283 284 284 284 284 284 284 284 284 285 285 285 285 285 285 285 285 286 286 286
292 292 292 291 290 290 289 289 288 288 287 287 287 287 287 286 286 286 286 286 286 286 285 285 285 285 285 286 286 285 285 284 284 284 284 284 284 283 283 283 283 283 282 282 282 282 282 282 282 282 282 282 282 282 282 282 282 282 282 282 282 282 282 283 283 283 283 284 284 284 284 284 284 284 285 285 285 285 285 285 285 285 286 286 286 286
291 290 290 289 288 288 287 287 287 286 287 287 287 287 286 286 286 286 286 286 285 285 285 285 285 285 286 286 285 285 284 284 283 284 284 283 283 283 283 282 282 282 282 282 282 282 282 282 282 282 282 282 282 282 282 282 282 282 282 282 282 282 283 283 283 283 284 284 284 284 284 285 285 285 285 285 285 285 285 285 285 285 286 286 286 287
288 288 287 287 287 286 286 286 286 286 286 286 286 286 286 285 285 285 285 285 285 285 285 284 284 285 285 285 284 284 284 283 283 283 283 283 283 283 282 282 282 282 282 282 282 281 281 282 282 282 282 282 282 282 282 282 282 282 282 282 283 283 283 284 284 284 284 285 285 285 285 285 285 285 285 285 285 285 285 285 285 286 286 286 287 287
286 286 285 285 285 285 285 285 285 286 286 285 285 285 285 285 285 284 284 284 284 285 284 284 283 283 283 283 283 283 283 283 283 283 283 283 283 282 282 282 282 282 282 281 281 281 281 281 281 282 282 282 282 282 282 282 282 282 283 283 283 284 284 284 285 285 285 285 285 285 285 285 285 285 285 285 285 285 285 286 286 286 286 286 287 288
285 285 285 285 285 285 285 285 285 285 285 285 285 284 284 284 284 284 284 284 284 284 284 283 283 282 282 283 283 283 283 283 283 283 282 282 282 282 282 282 282 282 282 281 281 281 281 282 281 281 282 282 282 282 282 282 283 283 284 284 284 285 285 285 285 285 285 285 285 285 285 285 285 285 285 285 285 285 286 286 286 286 286 287 288 288
285 285 284 284 285 285 285 285 284 284 284 284 284 284 284 284 284 284 284 284 284 284 283 283 283 282 282 282 282 283 283 283 283 283 282 282 282 282 282 282 282 282 282 281 281 281 281 282 282 282 282 282 282 282 282 283 283 284 284 285 285 285 285 285 285 286 286 286 286 286 286 286 286 286 286 286 286 286 286 286 286 286 287 287 288 288
284 284 284 284 284 284 284 284 284 284 284 284 284 284 284 284 284 284 284 284 284 283 283 282 282 282 282 282 282 282 283 283 283 283 282 282 282 282 282 282 282 282 281 281 281 281 281 281 282 282 282 282 282 282 282 283 283 284 285 285 285 285 285 286 286 286 286 286 286 286 286 286 286 286 286 287 287 287 287 287 287 287 287 288 288 288
284 284 283 283 283 283 283 283 284 284 284 284 284 284 284 283 283 283 283 283 283 283 283 282 282 282 282 282 282 282 282 283 283 282 282 282 282 282 282 282 282 282 281 281 280 280 280 280 281 282 282 282 282 282 283 283 284 284 285 285 285 285 286 286 286 286 286 287 287 287 287 287 287 287 287 287 287 288 288 288 288 287 288 288 288 288
283 283 283 283 283 283 283 284 284 284 284 284 283 283 283 283 283 283 283 283 283 283 283 283 283 283 283 282 282 282 282 283 282 282 282 282 282 282 282 282 282 281 281 280 280 280 280 280 280 281 282 282 282 283 283 283 284 284 284 285 285 285 286 286 286 287 287 287 287 287 287 287 287 287 288 288 288 288 288 288 288 288 288 288 288 288
283 283 283 283 283 283 284 284 284 284 284 283 283 283 283 283 284 284 284 283 283 283 282 283 283 282 282 282 282 283 283 282 282 282 282 282 282 282 281 281 281 281 280 280 280 280 280 280 279 280 281 282 283 283 283 284 284 284 285 285 285 285 286 286 286 287 287 287 287 287 287 287 288 288 288 288 288 288 288 288 288 288 288 288 288 288
283 283 283 283 284 284 284 284 284 284 284 283 283 283 283 283 284 284 283 283 283 282 282 282 282 282 282 282 282 282 282 282 282 282 282 281 281 281 281 281 280 280 280 280 280 280 280 279 279 279 280 281 283 284 284 284 284 285 285 285 285 285 285 286 286 287 287 287 287 287 287 287 288 288 288 288 288 288 288 288 288 288 288 288 288 288
283 283 283 284 284 284 284 284 285 284 284 283 283 283 283 283 283 283 283 283 283 282 282 282 282 283 282 282 282 282 282 282 282 281 281 281 281 281 281 280 280 280 279 279 279 279 279 279 279 279 280 280 282 283 284 285 285 285 285 285 285 285 285 286 286 286 287 287 287 287 287 287 288 288 288 288 288 288 288 288 288 288 288 289 289 289
283 283 283 284 284 284 284 284 285 285 284 283 283 283 283 283 283 283 283 283 283 283 283 283 283 283 282 282 282 282 282 282 281 281 281 281 281 280 280 280 280 280 279 279 279 279 279 279 279 280 280 280 281 282 283 285 285 286 286 286 286 285 286 286 286 286 286 287 287 287 287 287 287 287 288 288 288 288 288 288 288 288 289 289 289 289
282 282 283 283 284 284 284 284 284 285 284 284 283 283 283 283 283 283 283 283 283 283 283 283 283 283 282 282 282 282 282 281 281 281 281 281 280 280 280 280 280 280 280 279 279 279 278 278 279 279 280 281 281 282 283 284 284 285 286 286 286 285 285 286 286 286 286 286 287 287 287 287 287 287 287 287 288 288 288 288 289 289 289 289 289 288
282 282 282 283 283 283 283 284 284 285 285 284 283 283 283 283 283 283 283 283 283 283 283 283 283 283 282 282 282 282 282 281 281 281 281 281 281 281 281 281 281 281 280 280 279 279 279 278 278 279 279 280 282 283 283 284 284 284 285 286 286 286 286 286 286 286 286 286 287 287 287 287 287 287 287 287 287 288 288 288 288 288 288 288 288 288
281 282 282 282 282 283 283 283 284 284 284 284 283 283 283 283 283 283 283 283 283 283 283 283 283 283 283 282 282 282 281 281 281 281 281 281 281 281 281 281 281 281 280 280 280 280 279 279 279 280 280 280 281 283 284 284 284 284 284 285 286 286 286 286 286 286 286 286 286 287 287 287 287 287 286 286 287 287 287 288 288 288 288 287 287 287
281 281 281 282 282 282 283 283 283 283 283 283 283 283 283 283 283 283 283 283 283 283 283 283 283 283 283 282 282 282 281 281 281 281 281 281 281 281 281 281 281 280 280 280 280 280 280 280 280 281 281 281 282 283 283 284 283 283 283 283 284 285 286 286 286 286 286 286 286 286 286 287 286 286 286 286 286 287 287 287 287 287 287 286 286 286
281 281 281 281 281 282 282 283 283 283 283 283 283 283 283 283 283 283 283 283 284 284 284 283 283 283 283 282 282 282 281 281 281 281 281 281 281 281 281 281 281 280 280 280 281 281 281 281 281 281 281 282 282 283 284 284 284 283 283 283 284 285 286 286 286 286 286 286 286 286 286 286 286 286 286 286 286 286 287 287 287 287 286 286 286 285
280 280 281 281 281 282 282 283 283 283 283 283 283 283 283 283 283 283 283 283 283 283 283 283 283 283 283 282 282 282 282 281 281 281 281 281 282 281 281 281 281 281 280 281 281 281 281 281 281 282 282 282 283 283 283 284 284 284 283 283 283 284 284 286 286 287 286 286 286 286 286 286 286 286 286 286 286 286 286 286 286 286 286 286 285 285
280 280 281 281 281 282 282 283 283 283 283 283 283 283 283 283 283 283 283 283 283 283 283 283 283 283 282 282 282 282 282 282 282 282 282 282 282 281 281 281 281 281 281 281 281 282 282 282 282 282 282 283 283 283 283 283 283 284 284 284 283 283 283 284 286 286 286 286 286 286 286 286 286 286 286 286 285 285 286 286 286 286 285 285 285 285
280 280 281 281 281 282 282 283 284 284 284 284 283 283 283 283 283 283 283 283 283 283 283 283 282 282 282 282 282 282 282 282 282 282 282 282 282 282 281 281 281 281 281 281 281 282 282 283 283 283 283 283 283 283 283 283 283 284 284 284 284 284 285 285 285 286 286 286 286 286 286 286 285 286 285 285 285 285 285 285 285 285 285 285 285 285
280 280 280 281 281 282 282 283 284 284 284 284 283 283 283 283 283 283 283 283 283 283 282 282 282 282 282 282 281 281 281 282 282 282 283 283 282 282 282 281 282 282 282 282 282 282 282 283 283 283 284 284 284 284 283 283 283 284 284 285 285 286 286 286 286 286 286 286 286 286 286 285 285 285 285 285 285 285 285 285 285 285 285 285 285 285
280 280 280 281 281 282 283 283 284 284 284 284 283 283 283 283 283 283 283 283 283 282 282 282 282 282 282 282 281 281 281 281 281 282 282 283 283 282 282 282 282 283 283 283 283 282 282 283 283 283 284 284 284 284 284 283 284 284 285 285 286 286 286 286 286 286 286 286 286 286 285 285 285 285 285 285 285 285 285 285 285 285 285 285 285 285
280 280 280 281 281 282 283 283 284 284 284 283 283 283 283 283 283 283 283 283 283 282 282 282 282 282 282 282 281 281 280 281 281 281 282 282 282 282 282 283 283 283 284 284 284 284 283 283 283 284 284 284 284 283 284 284 284 285 285 285 286 286 286 286 286 286 286 286 286 285 285 285 285 285 285 285 285 285 285 285 285 285 285 285 285 285
280 280 281 281 282 282 283 283 283 283 283 283 283 283 283 283 283 283 283 283 283 282 282 282 282 282 282 282 281 281 281 281 281 281 282 282 282 282 282 283 284 284 285 285 285 285 285 284 284 284 284 284 283 283 284 284 285 285 285 286 286 286 286 286 286 286 286 286 286 285 285 285 285 285 285 284 284 285 285 285 285 285 285 285 285 285
280 280 281 281 282 282 282 283 283 283 283 283 283 283 283 283 283 283 283 283 283 282 282 282 282 282 282 281 281 281 281 281 281 281 282 282 282 282 282 283 284 285 286 286 286 286 286 286 285 284 284 283 283 283 284 285 285 286 286 286 286 285 286 286 286 286 286 285 285 285 285 285 285 285 284 284 284 284 285 285 285 285 285 285 285 285
280 280 281 281 282 282 282 283 283 283 283 283 283 283 283 283 283 283 283 283 283 282 282 282 282 282 282 281 281 281 281 281 281 281 281 281 281 282 282 283 284 284 285 286 287 287 287 287 286 286 284 284 283 284 284 284 285 286 286 286 286 286 286 286 286 286 285 285 285 285 285 285 285 285 284 284 284 284 284 284 285 285 285 285 285 285
Wind_Speed
24 24 24 24 24 25 25 23 22 22 21 20 19 19 19 19 20 20 21 21 22 22 22 23 23 24 25 26 26 26 26 25 25 25 25 24 24 24 24 25 25 25 26 26 26 27 27 27 27 26 25 24 24 23 23 23 22 22 22 22 22 22 22 23 24 25 26 27 27 27 27 27 26 26 26 26 27 27 27 27 28 29 30 30 30 30
23 23 23 23 23 23 22 19 18 18 19 19 19 19 20 21 21 21 22 22 22 22 23 23 24 25 25 26 26 26 25 25 25 25 25 24 24 25 25 25 25 26 26 26 27 27 28 28 27 26 24 24 23 23 23 23 23 22 22 22 22 22 23 23 24 26 27 27 27 28 27 27 27 27 27 27 27 27 27 28 29 29 30 30 30 29
21 22 21 20 20 19 18 16 15 16 17 19 20 21 21 22 22 22 22 22 22 22 23 23 24 25 25 26 26 25 25 25 25 25 25 24 24 25 25 26 26 27 28 29 30 30 29 28 27 25 23 23 23 23 23 23 23 23 23 23 22 22 23 24 25 26 26 27 27 27 26 26 26 26 26 26 26 27 27 28 29 29 29 29 29 29
18 19 19 18 17 16 16 16 16 17 18 20 21 21 22 22 23 23 23 23 23 23 23 23 24 24 25 25 26 25 25 25 25 25 25 24 25 25 26 27 28 30 31 32 32 31 28 26 24 23 23 23 23 24 24 24 24 24 24 23 22 22 23 24 26 26 27 27 26 25 25 25 25 25 25 25 26 27 28 29 29 29 29 29 28 28
16 16 16 16 16 16 15 16 17 19 20 21 22 22 22 23 24 24 25 25 24 24 24 24 24 24 25 25 26 26 26 25 25 25 25 25 26 27 28 29 31 32 33 33 31 29 26 24 23 22 23 23 23 24 25 26 26 26 25 24 22 22 23 25 26 27 27 27 26 25 24 24 24 24 25 25 26 27 28 29 29 29 29 28 28 28
14 15 15 16 16 17 17 17 18 20 21 22 23 24 24 25 25 26 26 26 25 25 25 24 24 25 25 26 26 26 26 25 25 26 26 28 29 30 31 32 34 34 33 31 28 25 23 22 22 23 23 24 24 25 26 27 28 28 27 25 23 23 24 25 27 27 27 27 25 24 23 23 24 24 25 26 27 28 29 29 29 29 28 28 28 28
15 14 15 16 17 18 18 19 20 21 22 23 25 25 26 27 27 27 27 26 26 25 25 25 25 26 26 27 27 26 26 25 26 27 28 30 31 33 33 34 34 33 31 28 24 22 21 21 22 23 24 25 26 27 27 28 30 30 29 27 26 26 26 26 27 27 27 26 24 23 23 23 24 25 25 26 27 28 29 29 29 29 28 28 28 28
16 16 16 17 18 19 19 20 20 21 23 24 25 27 28 29 29 28 28 27 26 26 26 26 27 27 27 27 27 27 26 26 27 28 30 31 32 32 33 33 32 31 28 25 22 21 22 24 25 26 27 27 27 27 28 28 29 30 30 29 28 28 27 27 27 26 26 25 24 23 23 24 25 25 26 27 27 28 28 28 29 29 29 29 29 28
18 18 18 18 19 21 22 22 22 22 23 24 26 27 28 30 30 29 28 27 26 26 27 27 28 29 28 28 28 28 28 28 29 30 31 31 31 31 30 30 29 27 26 24 24 26 28 29 29 28 28 27 26 26 26 27 28 28 29 29 29 27 26 26 25 25 24 24 23 23 23 24 25 26 26 27 27 28 28 29 29 29 29 29 29 28
18 19 20 20 20 21 23 24 24 24 24 25 25 26 27 28 29 29 28 27 27 27 27 28 29 30 30 30 30 30 31 32 31 30 29 28 28 27 26 26 26 27 27 28 30 31 31 29 27 26 25 24 23 23 24 24 25 26 26 26 26 24 24 24 24 24 23 23 23 23 24 25 26 26 27 27 28 28 28 29 29 29 29 29 28 28
19 20 21 22 22 23 24 24 25 26 25 26 26 26 26 26 27 28 28 29 29 29 29 29 29 30 32 33 33 34 33 32 30 28 26 25 24 24 25 27 29 31 32 32 32 31 28 25 23 21 21 20 20 21 21 22 22 23 23 22 22 22 23 23 23 23 23 23 23 24 25 25 26 26 27 27 28 28 28 28 29 29 29 28 28 27
21 22 23 24 25 25 24 24 24 24 25 26 26 27 26 26 25 26 27 28 29 30 30 31 31 31 32 33 34 33 32 29 27 25 24 24 25 27 30 33 35 35 34 33 30 27 24 22 21 20 20 20 21 22 23 23 23 23 22 21 21 22 23 23 23 23 23 23 24 25 25 26 26 27 27 27 28 28 28 28 29 29 28 28 27 27
22 23 24 25 26 25 24 23 22 23 24 25 26 27 27 27 26 25 26 27 28 29 30 30 31 31 31 31 30 29 27 26 25 25 26 28 30 33 35 36 36 35 33 30 27 24 22 21 21 21 21 22 24 25 26 26 25 24 23 22 22 23 23 23 23 23 23 24 24 25 25 26 26 27 27 27 28 28 28 28 29 28 28 27 27 26
23 24 25 26 26 25 23 22 22 23 25 25 26 26 27 26 24 24 25 26 27 27 27 28 30 31 31 29 27 25 25 25 26 28 30 32 34 35 34 33 31 30 29 27 25 23 22 22 22 22 22 23 25 26 27 27 25 24 23 23 23 23 23 23 23 23 23 24 24 25 25 26 26 27 27 27 27 28 28 28 28 27 27 26 26 26
25 25 26 27 26 25 23 22 23 25 26 26 25 25 24 23 22 22 23 24 25 26 28 30 31 32 30 27 25 24 24 25 28 31 34 35 34 32 29 27 26 26 26 25 24 24 23 24 24 24 24 25 26 27 27 26 24 23 23 22 22 22 22 22 22 23 23 24 24 25 25 26 26 27 27 27 28 28 28 27 27 26 26 26 26 26
25 25 26 26 25 24 22 23 24 26 26 25 23 21 20 20 21 22 22 23 25 27 29 31 33 32 29 25 23 23 24 27 30 33 35 34 32 28 25 24 24 24 24 24 24 24 24 25 25 26 26 26 27 27 26 25 23 22 22 21 21 21 21 22 23 23 24 24 25 25 26 26 26 27 27 27 27 27 27 26 26 25 25 25 25 26
25 25 24 23 23 22 23 23 24 23 22 21 19 19 19 20 22 24 25 26 28 30 31 33 32 30 28 26 24 23 26 29 32 33 33 31 29 26 23 22 22 24 24 25 25 25 26 26 26 26 26 26 26 25 24 23 21 21 21 21 21 21 22 22 23 24 24 25 25 26 26 26 27 27 27 27 27 26 26 25 25 25 25 25 25 25
23 23 22 22 21 22 23 23 22 21 20 19 19 21 22 24 26 27 28 30 31 32 32 31 28 26 25 25 26 27 29 31 32 32 29 27 25 24 22 21 22 23 24 25 26 26 26 26 26 26 25 25 24 23 22 20 19 19 20 20 20 21 22 22 23 23 24 25 25 26 26 27 27 27 27 26 25 25 24 24 24 24 25 25 25 25
23 22 22 22 22 21 21 20 20 20 20 21 23 25 27 28 29 30 32 33 32 31 28 26 25 24 25 27 30 32 32 31 29 27 25 24 23 22 21 21 22 23 25 25 26 26 26 26 25 25 25 24 23 22 20 18 18 19 20 20 21 21 22 22 23 23 24 24 25 25 26 26 25 25 25 24 24 24 24 24 24 24 24 24 25 25
21 20 19 19 20 20 19 19 19 21 22 24 26 28 29 31 32 32 33 32 31 28 25 23 23 24 27 30 32 32 30 27 24 22 22 22 21 21 21 21 23 24 26 26 26 26 26 26 25 25 24 24 22 20 19 17 17 19 20 21 21 21 22 22 23 23 24 24 24 24 24 24 24 24 23 23 23 23 23 23 24 24 24 24 24 24
16 16 16 17 18 20 21 22 23 25 26 28 29 29 29 31 31 31 30 28 26 24 23 23 24 26 29 31 31 29 25 22 20 19 21 22 22 21 22 23 25 27 28 28 27 27 27 27 26 26 25 23 22 20 18 18 18 19 21 21 21 21 22 22 23 23 23 23 23 23 23 23 23 22 22 22 22 23 23 23 24 24 24 24 24 24
16 18 20 20 21 23 24 26 28 28 29 29 28 28 28 29 28 26 25 23 22 22 23 24 26 28 29 29 27 23 20 17 17 19 21 22 22 22 24 25 27 28 29 29 29 28 28 28 27 26 25 23 21 19 19 19 19 21 21 22 21 21 22 22 22 22 22 22 22 22 22 22 22 22 22 22 22 23 23 23 24 24 24 24 25 25
19 21 23 24 25 26 27 29 29 30 29 28 27 26 26 25 23 22 21 21 21 23 25 26 27 27 26 24 21 18 16 15 16 18 20 22 22 23 26 27 28 29 30 30 30 30 30 29 28 26 24 22 21 20 20 20 21 21 22 22 21 21 21 21 21 21 21 21 21 21 21 21 21 21 22 22 22 23 23 23 23 24 24 25 25 26
21 22 24 25 26 27 28 29 29 28 26 24 22 21 21 20 19 19 19 20 22 24 25 26 25 24 22 20 17 15 14 15 16 18 20 22 24 25 26 27 29 30 31 31 31 31 31 29 27 25 24 22 22 22 22 22 22 21 21 20 20 19 19 19 19 19 19 20 20 20 20 20 21 21 21 21 22 22 22 23 23 23 24 24 25 25
23 24 25 26 27 28 28 27 25 23 20 18 18 18 18 18 18 19 20 22 23 24 24 24 23 21 20 18 16 15 14 15 15 17 19 22 24 25 26 27 28 31 32 33 32 32 31 30 28 26 25 24 24 24 23 22 21 20 19 17 16 15 16 16 16 16 17 17 18 18 19 19 19 20 20 20 21 22 22 22 22 23 23 23 23 23
24 25 26 26 26 27 27 23 20 18 15 15 16 18 19 20 21 21 22 23 24 24 23 22 21 20 18 18 17 16 15 15 15 17 19 22 24 25 26 27 29 32 34 35 34 33 31 30 28 27 26 26 26 25 23 21 19 18 16 15 14 13 13 14 14 14 15 15 16 17 18 18 18 19 19 20 20 21 21 21 21 21 21 22 21 19
24 25 25 25 25 25 25 23 20 16 13 13 15 17 20 22 22 23 23 24 23 22 21 20 19 18 17 18 17 17 16 15 16 18 20 22 24 26 27 29 31 33 34 35 34 32 30 29 28 27 27 27 26 24 22 19 17 15 14 14 13 13 13 13 14 14 15 16 16 17 17 18 18 18 18 18 19 19 19 19 19 20 20 20 18 16
22 22 23 23 23 22 20 19 17 15 14 14 15 18 20 21 22 22 22 21 21 19 18 16 16 16 17 18 18 17 16 16 17 19 21 23 24 25 27 30 32 33 34 34 34 32 29 27 27 27 28 28 26 23 20 18 16 15 14 14 14 14 14 14 15 15 16 16 17 17 17 17 17 16 16 17 18 18 18 18 18 19 19 18 16 14
20 20 20 20 20 19 18 17 16 15 15 15 16 18 19 19 19 19 19 18 17 15 14 14 14 15 16 18 19 19 17 17 18 20 22 24 25 25 28 30 31 31 33 33 34 33 30 28 27 27 28 28 26 23 20 17 16 15 15 15 14 14 14 14 15 16 16 16 16 16 16 16 15 15 15 17 17 18 18 18 18 18 18 17 15 13
18 18 18 18 17 17 17 16 16 15 15 15 15 16 16 16 16 16 16 15 13 13 12 13 13 14 15 18 19 19 18 18 19 20 22 24 25 26 28 29 29 30 31 32 32 32 32 30 28 28 29 27 25 22 20 18 18 17 16 16 15 15 15 15 15 16 16 16 16 16 16 15 15 15 14 15 15 15 15 15 16 17 16 15 13 12
18 18 17 16 15 15 15 15 14 13 13 12 13 14 15 16 16 15 14 12 11 11 12 12 14 15 15 16 17 17 18 20 21 21 22 24 25 26 27 28 28 28 29 30 29 29 30 31 31 29 28 27 25 22 20 20 20 20 19 18 17 17 16 16 16 16 16 16 16 16 16 16 15 15 14 13 12 12 11 12 13 14 14 13 12 12
18 17 16 15 14 13 13 12 11 10 10 11 13 16 18 19 18 15 13 11 10 11 13 14 15 16 16 16 15 16 19 21 22 22 22 23 24 25 26 27 27 27 28 28 27 25 25 28 32 32 29 27 24 22 21 21 21 22 21 20 20 19 18 18 18 18 18 18 18 18 17 17 16 14 13 12 11 10 9 9 10 11 11 12 12 12
17 16 16 14 13 11 10 10 9 10 11 13 15 18 19 19 17 14 11 10 10 12 13 15 16 16 17 17 18 18 20 21 22 22 22 23 24 25 25 26 26 27 28 28 26 24 23 26 30 32 30 27 24 22 21 21 22 22 22 22 21 20 20 19 20 20 20 20 20 20 19 18 16 15 13 12 11 10 9 9 8 9 10 11 12 12
15 15 14 13 11 9 9 9 9 11 12 14 15 17 19 18 16 12 10 9 11 12 13 14 15 16 17 18 19 20 21 21 22 22 22 23 24 25 25 25 25 26 27 27 27 26 25 26 28 30 29 27 23 21 22 22 23 23 23 22 22 22 21 21 22 22 22 22 22 22 21 20 18 16 14 12 11 10 9 9 8 9 10 12 13 14
15 13 12 11 10 9 9 10 11 12 13 14 14 16 17 17 14 11 9 9 11 12 12 13 13 14 16 17 19 20 21 22 22 22 23 23 24 25 25 25 25 25 26 27 27 27 26 27 27 27 28 27 25 22 21 22 23 23 22 22 22 22 22 22 23 23 23 23 23 23 23 21 20 18 15 13 12 11 10 10 9 9 10 12 13 15
15 13 11 10 9 10 11 12 13 14 14 13 14 16 17 15 13 11 9 10 11 12 12 12 13 13 15 16 17 19 21 22 23 23 23 23 24 25 25 24 24 25 25 26 26 26 27 27 27 26 26 27 26 24 23 23 23 23 23 22 22 22 22 22 23 23 23 24 24 24 23 23 21 19 17 14 12 11 10 10 10 10 11 12 13 14
15 13 11 9 9 10 12 14 16 16 15 13 14 15 15 14 13 11 11 11 12 12 12 13 13 14 14 15 16 18 19 21 22 22 22 22 23 23 23 23 24 24 24 24 25 26 27 27 27 27 26 25 25 26 26 26 25 25 24 23 22 22 22 22 22 23 23 24 23 24 24 23 22 20 18 15 13 11 10 9 10 10 11 12 13 13
14 12 11 9 9 10 12 15 18 18 16 13 13 14 14 13 12 12 12 12 12 12 13 14 15 15 15 15 16 17 19 20 21 21 21 21 21 21 21 22 22 22 22 23 24 24 25 25 26 26 26 25 24 24 26 27 28 27 25 23 22 22 22 22 22 23 23 23 23 23 23 23 23 21 19 17 15 12 11 10 10 12 13 14 14 15
14 13 11 10 9 10 12 15 18 18 16 13 12 12 12 11 11 11 11 11 11 12 13 14 15 16 16 16 17 18 18 19 20 20 20 20 19 19 20 20 21 22 22 22 22 22 23 23 23 24 24 24 24 24 25 26 28 28 27 24 22 21 21 22 22 23 23 23 22 23 23 24 23 22 20 18 16 15 13 13 13 15 16 17 18 17
14 13 11 10 9 9 10 13 15 15 13 11 10 10 10 10 11 11 11 11 11 12 13 14 16 16 17 18 18 18 19 19 20 20 20 19 19 18 19 20 21 22 22 21 21 21 21 21 21 20 21 22 23 24 25 26 27 28 28 27 26 24 22 22 23 23 22 22 22 23 23 24 24 23 21 19 18 17 17 17 17 17 18 20 22 22
15 14 13 10 8 8 8 9 10 10 9 8 8 9 9 10 12 13 12 12 12 13 15 16 17 18 19 19 20 20 20 21 21 21 21 20 19 18 19 20 21 22 22 21 21 20 19 19 19 18 18 19 21 23 24 25 26 27 27 28 27 25 23 22 22 22 22 22 22 22 23 24 24 23 21 19 18 18 18 19 19 19 19 20 22 23
15 15 14 12 10 9 7 7 7 7 8 8 9 10 10 12 14 15 14 14 15 16 17 19 20 21 21 22 22 22 22 22 22 22 21 20 19 19 20 21 22 22 21 21 20 19 18 17 16 16 16 18 20 22 24 25 25 26 26 26 26 25 23 22 21 22 22 22 22 23 24 25 25 24 23 21 19 18 17 18 19 20 20 20 21 21
15 15 14 13 12 10 7 7 7 8 9 10 11 11 12 13 15 16 16 16 17 18 20 21 22 23 24 24 25 24 24 24 24 23 22 21 21 21 21 22 22 21 20 19 18 17 16 15 14 14 15 16 19 21 24 25 26 26 25 25 25 25 25 24 22 22 22 22 22 23 24 25 25 25 24 22 21 19 18 17 18 18 19 19 20 21
14 14 14 13 12 10 9 8 8 9 10 11 12 13 14 15 16 16 17 18 19 20 21 22 23 24 25 26 27 27 26 25 25 24 23 22 22 22 23 23 22 20 18 17 16 16 15 14 13 13 14 16 18 20 23 25 26 26 25 23 23 23 24 24 24 24 24 23 23 23 24 25 26 26 25 24 22 20 19 18 17 17 18 18 19 21
12 13 13 13 13 13 11 10 9 9 10 11 12 13 14 15 16 17 18 19 19 20 21 23 24 25 27 28 29 29 29 28 26 25 24 23 23 23 24 23 21 19 17 15 14 14 14 14 14 14 15 16 18 20 23 24 25 25 24 23 22 22 22 22 23 24 25 24 23 23 24 25 26 27 26 26 24 23 21 20 19 19 19 19 20 21
13 13 14 13 14 14 12 10 10 10 11 11 11 13 14 15 16 17 18 19 20 21 22 23 24 25 27 29 30 31 31 30 29 27 25 24 24 24 24 23 21 19 16 14 13 12 12 13 14 16 17 18 19 21 22 23 23 23 23 22 22 22 22 22 23 24 24 24 24 24 24 25 27 27 27 27 26 25 24 22 21 21 21 21 21 22
13 14 14 13 13 13 12 11 11 11 11 11 11 12 13 15 16 17 18 19 20 21 22 23 24 25 27 28 30 30 31 31 30 29 27 26 25 25 24 23 22 20 18 15 14 12 12 12 14 16 18 20 21 22 22 22 22 22 23 23 23 23 23 23 24 24 24 24 23 24 24 26 27 28 28 28 28 27 26 25 23 23 22 22 23 23
13 13 14 13 13 12 12 11 11 11 10 10 10 12 13 15 16 18 18 19 20 21 22 24 25 26 27 29 29 30 30 30 30 29 28 27 26 26 25 24 23 21 20 18 16 14 12 12 13 15 17 19 21 23 23 22 22 22 23 23 24 24 24 24 24 25 25 24 23 23 24 25 26 28 29 29 30 30 29 27 26 24 24 24 24 24
12 13 13 13 12 12 12 11 10 10 9 10 10 12 13 15 16 17 18 19 20 22 23 25 26 27 28 29 30 30 30 29 29 28 28 28 27 27 26 25 24 23 22 21 19 17 14 13 13 14 17 19 21 22 22 22 22 22 23 23 24 25 25 25 26 26 26 25 24 23 23 24 25 27 29 30 31 31 31 29 28 26 25 25 25 25
12 12 12 12 12 12 11 11 10 10 10 10 10 11 13 14 16 17 18 19 20 22 23 25 26 28 29 30 30 30 30 29 28 28 27 27 28 27 27 26 26 25 25 24 23 21 19 17 16 15 17 18 20 21 22 22 22 22 23 24 24 25 26 26 27 27 27 26 25 24 24 24 25 26 28 29 31 31 31 31 30 28 27 26 26 26
12 12 12 12 12 11 11 11 11 11 11 10 10 11 13 15 17 17 18 19 21 22 23 25 26 28 29 30 30 30 29 28 28 27 27 27 27 27 27 27 27 27 28 28 28 27 26 23 20 18 16 17 18 19 20 21 23 23 24 24 25 25 26 27 28 28 27 26 26 25 25 25 26 27 28 29 30 31 32 31 30 29 28 27 27 27
Wind_Direction
284 286 287 288 288 289 291 294 296 296 296 298 301 305 308 308 308 309 309 309 310 310 312 313 315 317 318 319 319 319 318 318 317 315 311 309 307 307 307 308 308 307 307 307 307 306 306 305 304 302 300 300 301 301 301 301 301 301 302 302 302 301 301 301 300 298 297 296 296 296 296 297 299 301 302 301 300 299 298 298 299 299 300 302 302 303
293 293 293 294 294 295 296 297 296 296 298 303 308 311 312 312 312 311 312 312 312 313 314 315 317 317 318 318 318 318 317 315 314 312 308 306 305 305 306 306 306 306 306 305 305 305 304 303 301 299 298 298 300 300 299 299 299 299 300 300 300 300 300 300 300 298 297 298 298 299 299 299 300 300 299 298 298 299 299 299 300 301 302 303 303 302
298 298 298 300 300 300 300 301 301 302 306 310 313 314 314 313 313 313 313 313 314 314 315 316 316 317 317 316 316 316 314 313 311 309 307 304 304 304 305 305 304 304 304 303 303 303 302 301 300 299 299 299 299 299 298 298 297 296 296 296 297 298 300 301 300 299 298 298 297 297 298 298 298 298 298 298 299 299 300 301 301 302 303 303 303 302
303 302 302 304 303 301 301 304 307 310 312 313 314 314 314 313 313 314 315 316 316 316 316 316 316 315 315 314 314 313 312 311 309 308 306 304 303 303 303 303 303 303 303 302 302 302 301 300 300 300 300 299 299 298 297 295 294 292 291 292 294 297 300 301 301 300 299 298 297 296 296 296 297 297 298 299 300 300 301 302 302 303 303 303 303 302
309 307 306 305 304 303 304 307 310 312 313 312 312 312 313 313 315 316 317 318 318 317 316 316 315 314 313 312 312 311 311 309 308 307 305 304 303 302 302 302 302 302 302 301 301 300 299 299 299 299 299 298 297 296 295 294 291 288 286 287 290 296 300 301 301 300 299 298 297 297 297 297 298 299 299 300 301 301 302 303 303 304 304 303 302 301
312 310 309 307 306 305 307 309 311 312 312 312 311 312 313 315 316 318 319 319 318 317 316 315 313 312 311 310 310 309 308 307 306 305 304 303 302 301 300 300 301 301 301 300 299 297 297 297 297 297 297 296 295 295 295 293 290 287 286 288 294 300 302 300 300 299 298 298 298 298 299 299 299 300 300 301 302 302 303 304 304 304 304 303 301 300
312 309 308 307 306 306 307 309 312 314 314 314 314 314 315 316 317 318 319 319 318 317 315 313 311 310 309 308 307 306 305 303 302 302 302 302 301 300 299 299 300 300 300 298 296 295 296 298 299 299 298 297 295 294 294 293 290 289 290 296 302 305 303 301 300 299 298 298 299 300 300 300 300 301 302 302 303 303 304 304 305 304 303 302 301 300
312 309 308 307 308 308 308 310 312 315 317 317 318 318 318 318 318 319 319 319 318 316 313 311 309 308 307 307 306 305 303 302 302 304 304 304 302 300 299 299 299 299 298 296 296 298 301 304 304 303 301 299 297 295 294 293 291 291 295 300 304 304 301 301 300 299 299 299 300 301 302 302 302 302 303 303 303 304 304 304 304 303 303 302 301 301
312 311 310 310 311 313 312 312 314 316 317 318 319 319 320 320 320 320 320 320 317 314 311 309 308 308 308 308 307 306 306 306 308 309 309 307 303 300 299 300 301 302 302 301 303 306 309 309 308 305 302 300 298 296 294 293 293 295 298 301 302 301 300 300 300 299 300 301 302 303 303 304 304 304 304 304 304 304 303 303 303 303 302 302 302 301
310 311 312 312 313 314 315 315 316 317 317 318 318 319 319 320 320 320 319 317 315 312 310 309 309 310 310 310 310 310 310 311 313 313 312 308 304 302 303 306 309 310 311 311 312 314 314 314 311 308 305 303 300 298 298 298 298 300 303 303 302 301 302 301 301 301 302 303 304 305 305 305 304 304 304 304 304 303 303 303 302 302 302 302 302 301
312 314 315 316 315 315 316 316 317 317 317 318 319 319 320 320 319 318 316 314 313 312 311 311 311 311 311 312 313 314 315 316 316 316 312 308 307 308 310 313 315 316 316 316 317 318 319 318 316 314 312 311 310 310 311 311 311 311 311 310 308 306 305 304 303 304 305 306 306 306 305 305 305 305 305 304 304 303 303 303 302 302 302 302 301 301
316 318 318 319 320 320 319 317 316 317 318 319 320 319 319 318 318 316 313 312 312 313 312 312 311 311 311 313 316 317 319 319 318 315 311 308 308 310 312 314 315 315 316 317 319 321 323 323 323 322 322 322 322 323 323 323 323 322 320 317 314 311 308 307 307 307 308 307 307 306 305 305 306 305 305 304 304 303 303 303 302 302 302 302 301 301
319 321 322 322 322 321 319 316 315 316 318 319 319 318 317 316 315 313 311 311 313 314 314 313 312 311 312 315 318 320 321 319 316 311 307 306 308 310 312 314 315 316 318 320 322 325 327 326 324 323 323 323 324 324 324 324 323 322 320 317 314 311 310 309 309 308 308 307 306 306 307 307 306 305 305 304 304 304 303 303 302 302 302 302 302 301
324 325 325 324 321 318 315 312 313 316 318 319 318 317 315 313 312 311 312 313 315 317 317 317 316 316 317 319 321 321 319 316 311 308 307 308 310 313 315 317 319 320 322 325 327 328 329 325 321 318 318 319 320 321 321 321 320 318 317 314 312 311 309 308 308 308 307 307 307 307 307 307 306 305 305 305 304 304 303 303 303 303 303 302 302 302
328 327 324 321 317 314 311 311 313 316 318 319 318 316 313 312 313 316 319 320 321 321 321 321 320 319 320 321 322 320 317 313 310 310 311 313 316 319 322 324 325 326 327 327 328 328 327 324 321 319 317 317 317 318 318 317 316 314 313 312 311 310 308 307 308 308 308 309 309 308 308 307 306 306 306 305 304 304 304 304 304 304 303 303 302 302
327 325 321 317 314 313 313 314 316 318 319 318 317 316 316 318 322 324 325 324 323 323 322 322 321 321 320 321 321 319 316 313 313 315 317 318 321 325 329 330 329 327 326 326 326 326 325 323 322 320 318 317 317 316 316 314 313 312 313 312 310 310 309 309 309 309 310 309 309 308 307 307 306 306 306 305 305 305 305 305 305 305 304 304 303 303
324 322 320 318 316 316 316 317 317 317 316 315 314 315 318 321 322 323 324 323 322 321 320 321 321 321 320 320 320 318 316 316 317 318 319 321 324 327 331 330 327 324 323 323 323 323 323 322 320 319 317 317 316 316 315 313 312 313 314 313 312 311 311 311 310 310 310 309 307 307 306 306 306 306 306 306 306 307 307 307 307 306 305 305 305 304
317 318 318 318 316 315 314 314 313 312 310 310 311 312 313 316 319 321 322 321 320 319 319 319 319 319 319 319 317 315 315 317 318 319 320 322 324 327 329 327 323 321 321 321 321 322 322 321 320 319 318 318 318 317 316 314 314 315 317 316 314 314 313 312 311 310 309 307 307 307 307 307 307 308 308 308 308 309 308 308 307 307 307 306 306 305
307 308 309 309 309 310 310 310 309 309 311 314 315 316 316 318 320 321 320 319 318 318 319 320 320 318 316 313 312 313 316 318 319 320 321 322 324 325 327 325 322 320 320 320 321 322 322 321 320 320 320 320 320 320 319 317 317 318 320 318 317 315 314 313 311 310 309 309 309 309 309 310 311 311 311 311 310 310 309 309 308 308 307 306 306 305
302 304 305 306 307 308 309 311 313 315 318 320 322 322 323 321 319 318 316 315 316 317 319 320 318 315 312 310 312 315 320 321 323 324 324 324 325 327 328 327 324 322 321 322 323 323 323 322 322 322 323 323 323 323 322 321 321 322 322 321 318 316 314 312 311 311 309 307 308 311 312 314 314 313 312 311 310 310 309 309 308 307 306 306 305 305
306 310 313 312 311 312 314 317 319 321 323 323 324 324 321 318 315 314 313 314 317 319 319 318 314 312 311 311 314 318 323 327 330 331 330 329 329 330 331 329 327 325 324 324 325 325 324 323 323 324 325 325 326 327 326 326 326 325 324 322 319 316 315 313 312 311 309 310 312 314 315 315 315 314 312 311 310 310 309 309 308 307 306 306 305 304
302 304 305 306 309 312 315 317 319 321 321 322 321 318 315 313 312 313 314 316 317 317 315 312 310 310 311 312 316 322 328 335 338 338 335 333 331 330 330 329 328 326 326 326 326 326 325 325 325 326 328 329 331 331 331 331 329 327 325 323 320 317 317 314 313 313 315 316 317 318 318 317 316 315 314 313 312 311 310 310 309 308 307 306 305 304
294 296 298 302 306 309 311 312 314 315 315 316 314 310 309 308 310 312 315 314 312 310 308 307 308 309 311 314 320 328 337 342 343 341 337 333 330 329 328 328 328 328 329 329 329 328 327 328 329 331 334 336 337 337 336 333 330 327 325 323 321 319 318 318 318 319 320 320 320 320 319 318 317 316 315 314 312 311 310 309 308 307 306 305 305 304
295 297 300 303 306 307 307 308 308 309 310 311 310 307 306 306 307 308 308 307 305 304 304 306 309 313 317 322 330 340 346 347 346 342 336 332 329 327 327 328 330 331 331 331 331 331 332 333 335 339 341 342 342 340 338 335 332 328 326 325 323 322 322 322 322 322 321 321 320 320 319 318 317 315 313 312 311 310 309 308 307 307 307 307 307 307
299 300 301 302 303 303 302 303 304 307 312 314 313 310 307 305 305 304 303 302 303 305 309 314 318 322 328 333 341 350 353 352 348 341 334 330 327 326 328 332 334 335 335 334 335 335 336 338 341 345 346 345 343 342 340 338 336 334 331 329 328 327 327 325 324 322 321 320 319 318 317 316 314 312 311 310 309 309 309 310 311 312 312 312 312 313
295 296 297 297 297 297 297 300 302 306 315 318 315 311 307 306 306 306 307 309 312 317 321 325 328 332 336 340 348 356 359 357 350 340 334 331 330 330 333 337 339 338 338 337 337 338 339 340 343 345 346 345 345 345 345 344 344 342 341 340 339 337 333 330 326 323 321 319 317 316 315 314 313 312 312 312 312 313 315 316 318 319 319 318 317 318
294 294 294 295 295 295 295 296 298 303 311 316 316 313 310 311 313 316 318 320 323 327 330 333 336 339 343 348 353 358 1 358 350 342 339 336 334 334 336 341 342 341 339 338 337 338 338 339 341 343 344 345 348 350 353 354 354 354 353 352 349 345 339 333 328 324 322 320 319 318 317 317 317 317 317 318 319 320 322 324 325 324 322 320 320 323
300 299 298 298 297 297 297 297 298 299 304 311 316 317 316 318 321 325 327 328 330 333 336 341 345 347 348 349 353 359 1 357 350 346 343 341 338 336 337 341 342 340 338 336 336 336 337 338 340 342 343 347 352 357 2 4 5 4 3 0 356 349 342 335 330 328 326 325 325 324 324 325 325 325 325 326 327 328 329 330 330 327 324 322 323 327
308 307 305 303 301 300 298 298 298 299 302 309 315 318 320 325 330 333 333 333 336 341 346 353 356 354 351 350 354 359 359 357 354 350 346 344 340 336 338 341 341 339 338 336 336 336 338 340 341 342 343 349 355 3 8 12 12 10 7 3 358 351 344 338 335 333 333 333 333 333 335 335 335 335 336 335 335 334 334 334 333 330 326 324 326 329
316 314 311 308 305 303 301 301 302 305 309 314 319 323 329 336 341 343 342 343 346 351 357 2 3 360 355 352 352 352 353 357 357 353 349 345 339 336 338 339 338 338 337 337 336 336 336 339 342 343 344 350 357 5 10 12 12 9 6 3 358 353 348 344 343 342 342 343 344 345 346 347 347 347 346 344 341 339 337 337 335 332 327 326 328 329
323 321 318 316 314 313 312 313 316 321 326 330 336 343 351 355 356 355 353 356 360 5 9 10 7 3 359 354 348 343 344 354 357 354 350 345 340 337 338 338 337 336 336 337 337 335 332 334 340 344 347 352 358 4 8 9 8 6 4 2 360 357 355 353 352 352 353 354 356 357 357 357 356 355 353 350 346 342 339 339 337 335 330 330 330 330
328 327 327 326 327 328 330 335 342 349 355 358 1 2 4 5 5 5 5 10 17 21 20 15 10 5 1 357 349 343 345 353 355 353 350 345 341 338 338 337 335 334 333 334 335 333 328 327 332 339 347 352 357 3 6 7 6 5 3 2 2 2 1 1 0 0 1 3 4 5 4 3 2 359 356 352 347 343 340 340 340 340 338 337 336 334
335 335 337 339 342 346 352 2 12 18 18 16 11 6 4 5 8 12 16 26 31 29 22 14 8 4 0 358 353 351 352 353 352 350 348 345 341 338 337 336 334 332 331 332 332 331 326 323 326 332 340 349 357 1 3 4 4 4 4 4 4 5 5 5 5 6 6 7 8 9 8 6 4 1 357 353 350 347 345 344 346 347 347 346 343 340
343 344 347 353 1 11 22 31 33 30 26 21 13 5 2 5 11 19 27 34 36 30 22 12 5 1 359 356 354 352 352 351 349 347 346 344 340 337 335 334 333 332 331 331 331 329 327 325 325 328 334 344 354 1 3 2 2 4 5 6 6 7 7 7 7 8 9 9 10 10 9 7 5 1 358 355 353 352 351 350 349 349 350 350 349 346
353 354 358 8 22 37 44 43 37 32 27 21 11 5 4 8 15 23 31 33 32 29 22 14 7 3 0 357 353 350 348 347 346 345 344 341 337 334 333 332 331 331 330 330 330 329 328 327 327 328 330 337 347 359 4 3 2 3 6 8 9 9 9 9 8 8 9 10 10 10 9 8 5 2 358 356 354 354 354 353 351 348 346 347 349 350
0 4 10 23 38 46 45 38 33 31 27 19 11 7 9 13 18 23 25 24 23 23 20 17 14 10 6 360 354 349 345 344 344 343 341 338 334 332 331 330 330 330 331 330 330 329 328 328 329 331 331 333 340 351 1 3 3 3 6 10 11 11 11 10 10 9 9 9 9 10 9 8 6 3 359 355 353 352 352 352 350 347 344 342 346 352
7 13 22 34 43 44 39 33 30 30 29 20 12 10 13 16 18 18 16 15 15 15 15 17 17 15 9 3 355 349 345 343 342 341 339 335 333 332 331 331 331 332 332 331 331 330 330 329 330 332 334 334 336 342 351 358 1 3 6 9 11 11 11 11 11 10 9 9 8 9 9 8 6 4 0 356 352 349 349 350 351 351 350 351 355 2
12 18 26 35 40 40 35 30 30 31 32 24 16 13 16 17 16 14 10 10 10 11 12 15 16 14 10 4 357 351 347 345 343 342 340 337 336 335 334 334 335 336 336 335 334 333 333 331 330 330 333 336 339 343 349 355 358 360 2 6 10 10 10 11 11 11 9 8 8 8 8 8 7 5 2 359 355 352 352 353 356 359 3 8 13 17
16 20 25 29 31 30 28 28 30 34 36 28 18 13 15 17 17 14 11 10 10 11 11 12 12 11 9 5 360 355 351 349 348 347 345 344 343 342 341 340 340 341 341 340 339 337 335 332 330 329 330 335 340 346 352 355 357 357 358 2 7 12 13 12 11 10 9 8 8 8 8 8 8 7 5 3 2 1 2 4 5 7 10 13 15 16
18 20 23 23 22 21 21 24 31 37 40 31 17 11 14 16 17 17 17 16 14 13 11 9 9 9 8 5 2 359 357 355 354 353 352 350 349 348 347 346 345 345 345 344 343 340 337 335 334 334 335 336 339 343 348 354 356 356 356 356 360 7 14 13 11 9 9 9 8 8 8 8 8 9 9 8 8 9 9 10 11 10 10 11 11 9
20 20 20 19 16 14 14 18 25 31 32 22 14 13 14 16 16 17 20 21 17 12 8 6 6 6 5 5 3 2 0 359 359 358 357 355 353 351 351 350 349 349 348 346 344 342 340 339 339 340 341 341 342 343 347 351 354 356 356 355 355 360 7 10 9 8 9 9 9 8 7 8 9 10 11 12 12 11 11 12 12 11 8 7 7 5
22 21 19 19 16 13 13 14 15 15 13 10 12 15 18 17 16 15 18 19 17 12 8 5 4 3 3 2 2 2 2 2 2 1 360 358 356 354 354 354 353 352 350 347 344 343 343 343 343 344 345 344 344 344 346 350 353 356 357 356 355 358 2 7 9 9 9 10 9 8 7 8 9 11 13 15 14 13 12 11 11 10 8 5 3 2
22 21 22 23 21 19 20 25 24 19 14 13 15 19 21 19 15 13 15 16 15 11 8 5 4 2 1 360 360 1 2 3 4 3 2 360 358 357 357 358 357 356 352 349 346 345 346 347 348 348 348 347 346 346 347 349 353 356 357 357 357 356 355 1 6 9 10 10 9 8 7 7 8 10 13 16 17 16 13 11 10 8 5 3 1 1
23 24 26 28 29 31 36 43 42 34 25 20 19 20 20 17 14 12 13 14 13 11 8 6 3 1 359 359 359 0 1 3 4 4 3 2 0 359 359 360 1 360 356 353 350 348 348 350 352 352 351 350 349 348 350 351 352 355 357 358 358 356 355 358 2 5 7 9 9 9 7 6 6 8 12 16 18 18 16 13 9 7 5 3 3 3
25 27 28 32 35 36 39 47 48 43 39 31 23 18 15 13 11 11 13 13 11 9 8 5 3 2 1 0 0 1 1 2 2 3 3 3 2 1 0 1 3 5 5 2 358 354 352 351 352 352 353 352 352 353 354 353 353 354 356 358 359 360 1 2 4 5 6 7 8 8 7 6 6 6 8 12 15 18 18 15 11 8 6 5 5 4
25 26 27 32 35 36 36 40 41 43 45 40 29 18 12 10 10 12 13 12 10 8 7 5 4 3 3 3 2 2 1 0 0 0 1 2 3 2 2 3 6 11 15 15 11 3 357 354 352 352 352 353 355 357 358 357 355 355 357 360 1 2 3 5 6 6 7 8 8 8 7 7 6 6 6 8 10 13 16 16 13 10 8 6 5 4
27 25 25 29 34 38 40 40 39 40 41 38 28 17 11 9 11 13 14 12 9 7 6 5 5 5 5 5 4 3 1 359 358 357 358 360 1 2 2 4 9 16 23 26 24 18 7 360 356 355 354 354 356 358 360 360 359 358 360 1 2 2 2 4 5 7 8 10 10 9 8 7 7 6 5 5 6 9 11 13 14 13 10 8 6 5
31 29 26 27 31 37 41 43 41 38 35 30 21 14 10 11 12 13 12 11 9 6 5 4 4 4 5 6 6 5 2 359 356 355 355 357 359 1 1 3 8 15 24 30 32 29 22 13 6 2 1 360 358 358 358 0 1 2 2 2 2 1 1 2 4 6 9 11 12 12 11 10 8 6 4 3 3 5 6 9 12 13 12 10 7 5
36 31 27 26 29 36 41 45 44 39 33 25 17 12 11 14 14 13 11 10 8 6 5 4 3 3 4 5 5 4 2 359 357 355 355 356 357 359 0 2 6 11 18 24 28 31 32 30 23 15 10 7 2 359 358 360 2 3 4 3 2 0 0 1 3 6 9 11 12 13 13 12 10 7 5 3 1 1 2 5 9 11 12 10 9 7
40 35 29 27 29 35 40 44 44 42 37 29 18 11 11 15 16 14 11 9 7 6 5 3 3 3 4 4 4 3 1 359 357 356 355 356 357 358 359 1 5 9 13 17 21 25 30 35 37 31 23 15 8 2 359 0 1 2 3 3 2 1 0 1 3 5 7 9 11 12 13 12 11 9 7 4 1 359 360 2 5 9 11 10 9 8
39 36 30 28 29 34 40 45 46 45 41 33 21 12 11 14 16 14 10 7 5 4 4 3 2 3 3 3 2 1 0 359 358 357 356 356 356 357 359 2 5 8 10 12 14 17 21 25 30 35 35 26 16 9 5 3 1 1 1 3 3 2 1 2 2 3 5 8 10 11 11 10 10 9 8 6 2 359 357 358 1 5 9 9 8 7